CZ-6A DEB

Satellite information

Favourite Embed

Satellite Type and Status

DEBRISIN ORBIT

Key statistics

Satellite CZ-6A DEB at a glance.

Uptime

441

Days in orbit

Revolutions

≈ 14.5

Per day

Orbit

LEO

Low Earth Orbit

Inclination

88.8

Latest

Satellite identification and parameters

Extended collection of information and parameters for CZ-6A DEB.

Object identification

Identified? True

Debris? True

Object name: CZ-6A DEB

International designator: 2024-140QL

Object number (NORAD): 61142

Object ID (CCSDS): 61142

Country: PEOPLES REPUBLIC OF CHINA (PRC)

Current information (Y/N): Y

RCS size: SMALL

Orbital parameters

Period: 99.071 minutes

Inclination: 88.8309 deg

SMA: 7092.369 km

Apoapsis: 791.191 km

Periapsis: 637.277 km

RAAN: 290.0446 deg

Eccentricy: 0.01085071

Argument of periapsis: 355.4766 deg

Mean anomaly: 4.545 deg

Mean motion: 14.53502485 rev/day

Mean motion (dot): 0.0000296 rev/day2

B* drag term: 0.00065294065 1/REarth

Two-line elements (TLE)

Creation date: Oct. 21, 2025, 3:26 a.m.

Reference frame: TEME

Reference center: EARTH

Epoch: Oct. 20, 2025, 8:51 p.m. UTC

TLE line 0: 0 CZ-6A DEB

TLE line 1: 1 61142U 24140QL 25293.86913752 .00002960 00000-0 65294-3 0 9993

TLE line 2: 2 61142 88.8309 290.0446 0108507 355.4766 4.5450 14.53502485 61668

Live tracking on map

Real-time ground track for satellite CZ-6A DEB.

In-orbit conjunctions

A list of the most updated potential collisions computed for object CZ-6A DEB.

Target Orbit TCA Probability of collision Miss distance Type
FENGYUN 1C DEB SSO 2025-02-03 04:17:54 0.0001164381 473.0 (m) DEBRIS
CZ-6A DEB LEO 2025-01-31 10:55:24 0.0001363722 995.0 (m) DEBRIS
CZ-6A DEB LEO 2025-01-25 01:10:51 0.001170563 168.0 (m) DEBRIS
FENGYUN 1C DEB SSO 2024-11-10 17:18:47 0.000301412 167.0 (m) DEBRIS
START 1 DEB LEO 2024-11-08 06:56:41 0.0001143867 738.0 (m) DEBRIS

Associated space launch

18 Low Earth Orbit communication satellites with Ku, Q and V band payloads for the G60 constellation operated by Shanghai Spacecom Satellite Technology (SSST) with funding backed by the Shanghai local government. Initial constellation will consist of 1296 satellites by 2027 with long term plans to expand it to 12000 satellites.

CZ-6A DEB was lifted into orbit during the mission ‘Long March 6A | G60 Polar Group 01’, on board a Long March 6A space rocket.

The launch took place on Aug. 6, 2024, 6:42 a.m. from Launch Complex 9A.

For more information about the launch, click the button.

Launch to space Long March 6A | G60 Polar Group 01
Long March 6A | G60 Polar Group 01

Agency: N/A

Status: Launch Successful

Launch date: Aug. 6, 2024, 6:42 a.m. UTC

Rocket: Long March 6A

Launch pad: Launch Complex 9A

Location: Taiyuan Satellite Launch Center, People's Republic of China

...

Latest news about this satellite

News about space launch
Brightness of first Chinese broadband constellation satellites alarms astronomers

The first satellites of a Chinese broadband constellation are significantly brighter than those of Western systems, posing a new challenge for astronomers.

News about space launch
Chinese rocket stage breaks up into cloud of more than 700 pieces of space debris

HELSINKI — A Chinese Long March 6A rocket’s upper stage has fragmented into a cloud of over 700 pieces of space debris, adding to concerns about long-term orbital safety. China […]

News about space launch
China's Thousand Sails Megaconstellation Kicks Off with Dangerous Debris Field

China's Thousand Sails Megaconstellation Kicks Off with Dangerous Debris Field


Newsletter sign-up

Weekly statistics, charts and insights to help you stay on top of the space industry.